TimeEST,TemperatureF,Dew PointF,Humidity,Sea Level PressureIn,VisibilityMPH,Wind Direction,Wind SpeedMPH,Gust SpeedMPH,PrecipitationIn,Events,Conditions,WindDirDegrees,DateUTC
12:53 AM,30.0,23.0,75,30.25,10.0,SW,3.5,-,N/A,,Overcast,220,2012-12-12 05:53:00
1:53 AM,28.0,21.0,75,30.27,10.0,SSW,4.6,-,N/A,,Clear,210,2012-12-12 06:53:00
2:53 AM,28.0,19.9,72,30.29,10.0,SSW,6.9,-,N/A,,Partly Cloudy,200,2012-12-12 07:53:00
3:53 AM,27.0,19.9,75,30.29,10.0,South,8.1,-,N/A,,Clear,190,2012-12-12 08:53:00
4:53 AM,27.0,19.9,75,30.30,10.0,SSW,6.9,-,N/A,,Clear,200,2012-12-12 09:53:00
5:53 AM,27.0,19.9,75,30.32,10.0,South,9.2,-,N/A,,Scattered Clouds,190,2012-12-12 10:53:00
6:53 AM,27.0,19.9,75,30.35,10.0,SSW,6.9,-,N/A,,Clear,200,2012-12-12 11:53:00
7:53 AM,26.1,19.9,78,30.36,10.0,South,6.9,-,N/A,,Clear,190,2012-12-12 12:53:00
8:53 AM,28.0,21.0,75,30.37,10.0,SSW,6.9,-,N/A,,Clear,210,2012-12-12 13:53:00
9:53 AM,30.9,21.9,69,30.39,10.0,SW,5.8,-,N/A,,Clear,220,2012-12-12 14:53:00
10:53 AM,33.1,23.0,66,30.40,10.0,SSW,10.4,-,N/A,,Clear,200,2012-12-12 15:53:00
11:53 AM,35.1,23.0,61,30.40,10.0,SSW,8.1,-,N/A,,Clear,210,2012-12-12 16:53:00
12:53 PM,37.0,24.1,59,30.39,10.0,South,9.2,-,N/A,,Clear,190,2012-12-12 17:53:00
1:53 PM,39.0,24.1,55,30.39,10.0,SW,6.9,-,N/A,,Clear,220,2012-12-12 18:53:00
2:53 PM,39.0,23.0,53,30.39,10.0,SSW,3.5,-,N/A,,Clear,210,2012-12-12 19:53:00
3:53 PM,39.9,21.9,49,30.39,10.0,SW,3.5,-,N/A,,Clear,220,2012-12-12 20:53:00
4:53 PM,37.0,24.1,59,30.40,10.0,Calm,Calm,-,N/A,,Clear,0,2012-12-12 21:53:00
5:53 PM,32.0,24.1,73,30.41,10.0,Calm,Calm,-,N/A,,Clear,0,2012-12-12 22:53:00
6:53 PM,28.9,23.0,78,30.42,10.0,Calm,Calm,-,N/A,,Clear,0,2012-12-12 23:53:00
7:53 PM,28.0,23.0,81,30.43,10.0,SSE,3.5,-,N/A,,Clear,160,2012-12-13 00:53:00
8:53 PM,28.0,21.0,75,30.44,10.0,SSE,4.6,-,N/A,,Clear,160,2012-12-13 01:53:00
9:53 PM,27.0,21.0,78,30.44,10.0,SSE,3.5,-,N/A,,Clear,160,2012-12-13 02:53:00
10:53 PM,28.0,21.0,75,30.44,10.0,SSE,5.8,-,N/A,,Clear,160,2012-12-13 03:53:00
11:53 PM,28.0,21.0,75,30.45,10.0,South,4.6,-,N/A,,Clear,170,2012-12-13 04:53:00